Tracking 28052 objects as of 24-Sep-2023
HD Live streaming from Space Station
objects crossing your sky now

STARLINK-30242

Track STARLINK-30242 now!
10-day predictions
STARLINK-30242 is classified as:


NORAD ID: 57739
Int'l Code: 2023-131H
Perigee: 349.2 km
Apogee: 357.1 km
Inclination: 43.0 °
Period: 91.5 minutes
Semi major axis: 6724 km
RCS: Unknown
Launch date: September 1, 2023
Source: United States (US)
Launch site: AIR FORCE EASTERN TEST RANGE (AFETR)
Your satellite tracking list
Your tracking list is empty




NASA's NSSDC Master Catalog

Two Line Element Set (TLE):
1 57739U 23131H   23267.16668981  .00219157  00000-0  14242-2 0  9996
2 57739  42.9996  11.5767 0005887 350.2011 201.6663 15.74514213  4763
Source of the keplerian elements: AFSPC